Location: Kermapucano
(48.0667°N, 3.3000°W)
Time: 20:39:20
(UTC+00:00)

ATLAS 3B R/B - Pass Details

Date: 29 November 2020
Orbit: 1013 x 1182 km, 63.8° (Epoch: 08 January)

Event Time Altitude Azimuth Distance (km) Brightness Sun altitude
Exits shadow 03:30:35 32° 40° (NE) 1,773 4.1 -40.8°
Drops below altitude 10° 03:36:09 10° 91° (E) 2,981 5.7 -39.9°
Sets 03:39:12 0° 101° (E) 3,965 6.5 -39.4°
